Natchez, MS

2:26 AM CST on November 21, 2019 (GMT -0600)
Hardy-Anders-Adams County

Weather History for KHEZ - September, 2019

Change the Weather History Date:

Saturday, September 28, 2019

  Actual Average Record
Temperature  
Mean Temperature 82 °F -  
Max Temperature 93 °F 83 °F 94 °F (1936)
Min Temperature 72 °F 60 °F 44 °F (2000)
Cooling Degree Days 18    
Growing Degree Days 32 (Base 50)    
Moisture  
Dew Point 70 °F    
Average Humidity 72    
Maximum Humidity 97    
Minimum Humidity 44    
Precipitation  
Precipitation 0.00 in - - ()
Sea Level Pressure  
Sea Level Pressure 30.02 in    
Wind  
Wind Speed 8 mph (SSE)    
Max Wind Speed 17 mph    
Max Gust Speed 21 mph    
Visibility 10 miles    
Events      
Averages and records for this station are not official NWS values.
T = Trace of Precipitation, MM = Missing Value Source: NWS Daily Summary

Daily Weather History Graph

Daily Weather History Graph

Search for Another Location

Airport or City:

Astronomy

Sep. 28, 2019 Rise Set
Actual Time 6:57 AM CDT 6:54 PM CDT
Civil Twilight 6:32 AM CDT 7:18 PM CDT
Nautical Twilight 6:04 AM CDT 7:46 PM CDT
Astronomical Twilight 5:36 AM CDT 8:15 PM CDT
Moon 6:38 AM CDT (9/28) 7:17 PM CDT (9/28)
Length of Visible Light 12h 45m
Length of Day
11h 57m
Waning Crescent, 0% of the Moon is Illuminated
Sep 28
Waning Crescent
Sep 28
New
Oct 5
First Quarter
Oct 13
Full
Oct 21
Last Quarter

Hourly Weather History & Observations

Time (CDT) Temp. Heat Index Dew Point Humidity Pressure Visibility Wind Dir Wind Speed Gust Speed Precip Events Conditions
12:56 AM 72.0 °F - 69.1 °F 91% 29.95 in 10.0 mi South 5.8 mph - N/A   Clear
1:56 AM 73.0 °F - 70.0 °F 90% 29.95 in 10.0 mi South 6.9 mph - N/A   Clear
2:56 AM 73.0 °F - 71.1 °F 93% 29.96 in 10.0 mi SSE 6.9 mph - N/A   Clear
3:56 AM 73.0 °F - 71.1 °F 93% 29.96 in 10.0 mi SSE 5.8 mph - N/A   Clear
4:56 AM 73.0 °F - 71.1 °F 93% 29.97 in 10.0 mi SSE 5.8 mph - N/A   Clear
5:56 AM 73.0 °F - 71.1 °F 93% 29.99 in 10.0 mi SSE 4.6 mph - N/A   Clear
6:56 AM 72.0 °F - 71.1 °F 97% 30.01 in 8.0 mi SSE 5.8 mph - N/A   Clear
7:56 AM 75.0 °F - 72.0 °F 90% 30.03 in 10.0 mi SE 6.9 mph - N/A   Clear
8:56 AM 79.0 °F - 73.0 °F 82% 30.05 in 10.0 mi SSE 8.1 mph - N/A   Clear
9:56 AM 82.9 °F 88.8 °F 73.0 °F 72% 30.06 in 10.0 mi SSE 12.7 mph - N/A   Scattered Clouds
10:09 AM 84.2 °F 90.9 °F 73.4 °F 70% 30.07 in 10.0 mi SE 11.5 mph - N/A   Mostly Cloudy
10:32 AM 84.2 °F 90.9 °F 73.4 °F 70% 30.08 in 10.0 mi SSE 12.7 mph - N/A   Partly Cloudy
10:56 AM 87.1 °F 93.6 °F 72.0 °F 61% 30.08 in 10.0 mi South 8.1 mph - N/A   Scattered Clouds
11:56 AM 86.0 °F 91.5 °F 71.1 °F 61% 30.08 in 10.0 mi SE 9.2 mph - N/A   Scattered Clouds
12:56 PM 91.0 °F 96.6 °F 70.0 °F 50% 30.05 in 10.0 mi SSE 13.8 mph 18.4 mph N/A   Partly Cloudy
1:56 PM 91.0 °F 96.6 °F 70.0 °F 50% 30.03 in 10.0 mi SE 10.4 mph - N/A   Partly Cloudy
2:56 PM 93.0 °F 97.9 °F 69.1 °F 45% 30.01 in 10.0 mi South 9.2 mph - N/A   Scattered Clouds
3:56 PM 93.0 °F 97.4 °F 68.0 °F 44% 29.99 in 10.0 mi SSE 13.8 mph - N/A   Clear
4:56 PM 93.0 °F 97.4 °F 68.0 °F 44% 29.99 in 10.0 mi SE 17.3 mph 20.7 mph N/A   Mostly Cloudy
5:56 PM 89.1 °F 92.1 °F 66.9 °F 48% 30.00 in 10.0 mi South 4.6 mph - N/A   Clear
6:56 PM 84.0 °F 87.8 °F 69.1 °F 61% 30.00 in 10.0 mi SE 3.5 mph - N/A   Clear
7:56 PM 79.0 °F - 70.0 °F 74% 30.01 in 10.0 mi SSE 3.5 mph - N/A   Clear
8:56 PM 75.9 °F - 69.1 °F 79% 30.03 in 10.0 mi SSE 6.9 mph - N/A   Clear
9:56 PM 78.1 °F - 66.9 °F 68% 30.05 in 10.0 mi SSE 9.2 mph - N/A   Clear
10:56 PM 78.1 °F - 69.1 °F 74% 30.06 in 10.0 mi SSE 10.4 mph - N/A   Clear
11:56 PM 77.0 °F - 70.0 °F 79% 30.06 in 10.0 mi SSE 9.2 mph - N/A   Clear